| time (UTC) | temp C | wind direction | speed KPH | gust KPH | rain 1hr cm | rain 24hr cm | rain mn cm | humidity % | barometer mb |
| 20260503054541 | 1 | 264 | 0.0 | 0.0 | 0.00 | 0.00 | 0.00 | 89 | 1018.0 |
| 20260503053604 | 1 | 264 | 0.0 | 0.0 | 0.00 | 0.00 | 0.00 | 89 | 1018.0 |
| 20260503051428 | 1 | 264 | 0.0 | 0.0 | 0.00 | 0.00 | 0.00 | 89 | 1018.0 |
| 20260503050445 | 1 | 264 | 0.0 | 0.0 | 0.00 | 0.00 | 0.00 | 88 | 1017.9 |
| 20260503045502 | 2 | 264 | 0.0 | 0.0 | 0.00 | 0.00 | 0.00 | 88 | 1017.9 |
| 20260503044510 | 2 | 264 | 0.0 | 0.0 | 0.00 | 0.00 | 0.00 | 87 | 1017.8 |
| 20260503042324 | 2 | 264 | 0.0 | 0.0 | 0.00 | 0.00 | 0.00 | 86 | 1017.8 |
| 20260503041316 | 2 | 264 | 0.0 | 0.0 | 0.00 | 0.00 | 0.00 | 86 | 1017.8 |
| 20260503040254 | 3 | 264 | 0.0 | 0.0 | 0.00 | 0.00 | 0.00 | 86 | 1017.8 |
| 20260503035304 | 3 | 264 | 0.0 | 0.0 | 0.00 | 0.00 | 0.00 | 87 | 1017.9 |
| 20260503034300 | 3 | 264 | 0.0 | 0.0 | 0.00 | 0.00 | 0.00 | 87 | 1017.9 |
| 20260503033301 | 3 | 264 | 0.0 | 0.0 | 0.00 | 0.00 | 0.00 | 86 | 1017.9 |
| 20260503032313 | 3 | 264 | 0.0 | 0.0 | 0.00 | 0.00 | 0.00 | 85 | 1018.0 |
| 20260503031324 | 3 | 264 | 0.0 | 0.0 | 0.00 | 0.00 | 0.00 | 85 | 1018.1 |
| 20260503030336 | 3 | 264 | 0.0 | 0.0 | 0.00 | 0.00 | 0.00 | 84 | 1018.0 |
| 20260503025341 | 3 | 264 | 0.0 | 0.0 | 0.00 | 0.00 | 0.00 | 83 | 1018.1 |
| 20260503024338 | 3 | 264 | 0.0 | 0.0 | 0.00 | 0.00 | 0.00 | 82 | 1018.1 |
| 20260503023308 | 3 | 264 | 0.0 | 0.0 | 0.00 | 0.00 | 0.00 | 80 | 1018.3 |
| 20260503022326 | 3 | 264 | 0.0 | 0.0 | 0.00 | 0.00 | 0.00 | 79 | 1018.2 |
| 20260503021341 | 4 | 264 | 0.0 | 0.0 | 0.00 | 0.00 | 0.00 | 77 | 1018.2 |
| 20260503020347 | 4 | 264 | 0.0 | 0.0 | 0.00 | 0.00 | 0.00 | 75 | 1018.2 |
| 20260503015408 | 5 | 264 | 0.0 | 0.0 | 0.00 | 0.00 | 0.00 | 74 | 1018.1 |
| 20260503014334 | 5 | 264 | 0.0 | 0.0 | 0.00 | 0.00 | 0.00 | 72 | 1018.0 |
| 20260503013305 | 6 | 264 | 0.0 | 0.0 | 0.00 | 0.00 | 0.00 | 69 | 1017.9 |
| 20260503012238 | 6 | 264 | 0.0 | 0.0 | 0.00 | 0.00 | 0.00 | 67 | 1017.8 |
| 20260503011225 | 6 | 264 | 0.0 | 0.0 | 0.00 | 0.00 | 0.00 | 66 | 1017.8 |
| 20260503010239 | 6 | 264 | 0.0 | 0.0 | 0.00 | 0.00 | 0.00 | 65 | 1017.8 |
| 20260503004119 | 7 | 264 | 0.0 | 0.0 | 0.00 | 0.05 | 0.00 | 60 | 1017.7 |
| 20260503003104 | 7 | 264 | 0.0 | 0.0 | 0.00 | 0.05 | 0.00 | 59 | 1017.6 |
| 20260503002113 | 7 | 264 | 0.0 | 1.6 | 0.00 | 0.05 | 0.00 | 58 | 1017.6 |
| 20260503001103 | 7 | 264 | 0.0 | 4.8 | 0.00 | 0.05 | 0.00 | 56 | 1017.5 |
| 20260502235008 | 7 | 296 | 0.0 | 1.6 | 0.00 | 0.05 | 0.00 | 58 | 1017.4 |
| 20260502234026 | 7 | 296 | 0.0 | 3.2 | 0.00 | 0.05 | 0.00 | 57 | 1017.4 |
| 20260502231854 | 7 | 355 | 0.0 | 4.8 | 0.00 | 0.05 | 0.00 | 54 | 1017.4 |
| 20260502230844 | 7 | 270 | 0.0 | 3.2 | 0.00 | 0.05 | 0.00 | 54 | 1017.4 |
| 20260502225835 | 7 | 271 | 0.0 | 8.0 | 0.00 | 0.05 | 0.00 | 54 | 1017.4 |
| 20260502224850 | 7 | 270 | 0.0 | 8.0 | 0.00 | 0.05 | 0.00 | 53 | 1017.4 |
| 20260502222728 | 7 | 308 | 1.6 | 8.0 | 0.00 | 0.05 | 0.00 | 52 | 1017.3 |
| 20260502221710 | 8 | 288 | 0.0 | 3.2 | 0.00 | 0.05 | 0.00 | 53 | 1017.3 |
| 20260502215551 | 8 | 271 | 1.6 | 8.0 | 0.00 | 0.05 | 0.00 | 52 | 1017.2 |
| 20260502214529 | 8 | 281 | 0.0 | 9.7 | 0.00 | 0.05 | 0.00 | 52 | 1017.2 |
| 20260502213501 | 8 | 321 | 1.6 | 9.7 | 0.00 | 0.05 | 0.00 | 51 | 1017.1 |
| 20260502212439 | 8 | 268 | 1.6 | 4.8 | 0.00 | 0.05 | 0.00 | 51 | 1017.0 |
| 20260502211411 | 8 | 300 | 1.6 | 8.0 | 0.00 | 0.05 | 0.00 | 51 | 1017.0 |
| 20260502210413 | 8 | 292 | 0.0 | 9.7 | 0.00 | 0.05 | 0.00 | 51 | 1016.9 |
| 20260502205411 | 8 | 279 | 1.6 | 9.7 | 0.00 | 0.05 | 0.00 | 52 | 1017.0 |
| 20260502204417 | 8 | 267 | 3.2 | 9.7 | 0.00 | 0.05 | 0.00 | 50 | 1017.0 |
| 20260502202339 | 8 | 269 | 3.2 | 9.7 | 0.00 | 0.05 | 0.00 | 50 | 1017.1 |
| 20260502201329 | 8 | 20 | 1.6 | 6.4 | 0.00 | 0.05 | 0.00 | 49 | 1017.1 |
| 20260502200306 | 8 | 259 | 1.6 | 9.7 | 0.00 | 0.05 | 0.00 | 52 | 1017.1 |
| 20260502195321 | 8 | 271 | 1.6 | 9.7 | 0.00 | 0.05 | 0.00 | 52 | 1017.2 |
| 20260502194303 | 8 | 46 | 1.6 | 11.3 | 0.00 | 0.05 | 0.00 | 50 | 1017.4 |
| 20260502193317 | 8 | 303 | 1.6 | 11.3 | 0.00 | 0.05 | 0.00 | 51 | 1017.3 |
| 20260502192327 | 8 | 281 | 1.6 | 12.9 | 0.00 | 0.05 | 0.00 | 52 | 1017.4 |
| 20260502191254 | 8 | 272 | 1.6 | 12.9 | 0.00 | 0.05 | 0.00 | 51 | 1017.5 |
| 20260502184037 | 8 | 281 | 1.6 | 11.3 | 0.00 | 0.05 | 0.00 | 56 | 1017.7 |
| 20260502183053 | 8 | 284 | 1.6 | 12.9 | 0.00 | 0.05 | 0.00 | 55 | 1017.7 |
| 20260502182105 | 8 | 290 | 1.6 | 12.9 | 0.00 | 0.05 | 0.00 | 54 | 1017.7 |
| 20260502181116 | 8 | 319 | 1.6 | 11.3 | 0.00 | 0.05 | 0.00 | 54 | 1017.7 |
| 20260502180121 | 8 | 294 | 0.0 | 11.3 | 0.00 | 0.05 | 0.00 | 53 | 1017.7 |
| 20260502163700 | 7 | 298 | 3.2 | 9.7 | 0.00 | 0.05 | 0.00 | 59 | 1018.0 |
| 20260502162704 | 7 | 239 | 3.2 | 9.7 | 0.00 | 0.05 | 0.00 | 58 | 1018.1 |
| 20260502161635 | 7 | 283 | 1.6 | 9.7 | 0.00 | 0.05 | 0.00 | 57 | 1018.2 |
| 20260502160611 | 7 | 271 | 1.6 | 8.0 | 0.00 | 0.05 | 0.00 | 61 | 1018.2 |
| 20260502151557 | 7 | 284 | 1.6 | 8.0 | 0.00 | 0.10 | 0.00 | 68 | 1018.0 |
| 20260502150533 | 6 | 274 | 1.6 | 9.7 | 0.00 | 0.10 | 0.00 | 65 | 1018.1 |
| 20260502130403 | 4 | 323 | 0.0 | 4.8 | 0.00 | 0.13 | 0.00 | 81 | 1017.8 |
| 20260502122249 | 2 | 279 | 1.6 | 4.8 | 0.00 | 0.13 | 0.00 | 89 | 1017.6 |
| 20260502120130 | 1 | 305 | 0.0 | 3.2 | 0.00 | 0.15 | 0.00 | 94 | 1017.4 |
| 20260502115108 | 1 | 310 | 0.0 | 0.0 | 0.00 | 0.15 | 0.00 | 95 | 1017.3 |
| 20260502114118 | 1 | 310 | 0.0 | 1.6 | 0.00 | 0.15 | 0.00 | 95 | 1017.3 |
| 20260502113056 | 0 | 310 | 0.0 | 1.6 | 0.00 | 0.15 | 0.00 | 95 | 1017.3 |
| 20260502112048 | 0 | 310 | 0.0 | 0.0 | 0.00 | 0.15 | 0.00 | 95 | 1017.2 |
| 20260502111048 | 0 | 310 | 0.0 | 0.0 | 0.00 | 0.15 | 0.00 | 95 | 1017.1 |
| 20260502110020 | 0 | 310 | 0.0 | 0.0 | 0.00 | 0.15 | 0.00 | 94 | 1017.1 |
| 20260502105028 | 0 | 310 | 0.0 | 0.0 | 0.00 | 0.15 | 0.00 | 94 | 1017.0 |
| 20260502103954 | 0 | 310 | 0.0 | 0.0 | 0.00 | 0.15 | 0.00 | 94 | 1017.0 |
| 20260502103010 | 0 | 310 | 0.0 | 0.0 | 0.00 | 0.15 | 0.00 | 94 | 1017.1 |
| 20260502102028 | 0 | 310 | 0.0 | 0.0 | 0.00 | 0.15 | 0.00 | 94 | 1017.1 |
| 20260502090333 | 0 | 310 | 0.0 | 0.0 | 0.00 | 0.15 | 0.00 | 94 | 1017.0 |
| 20260502071103 | 1 | 310 | 0.0 | 0.0 | 0.00 | 0.15 | 0.00 | 94 | 1016.7 |
| 20260502070056 | 1 | 310 | 0.0 | 0.0 | 0.00 | 0.15 | 0.00 | 94 | 1016.9 |
| 20260502065104 | 1 | 310 | 0.0 | 0.0 | 0.00 | 0.15 | 0.00 | 94 | 1016.9 |
| 20260502064102 | 1 | 310 | 0.0 | 0.0 | 0.00 | 0.15 | 0.00 | 93 | 1017.0 |